(338288) = 2002 UG13 = 2007 TU113

Discovered at Haleakala on 2002-10-28 by NEAT.

Orbit

Orbit type: Main Belt

Note: WebGL enabled browser required.

epoch2024-03-31.0
epoch JD2460400.5
perihelion date2023-06-05.48778
perihelion JD2460100.98778
argument of perihelion (°)254.06409
ascending node (°)155.45472
inclination (°)9.33430
eccentricity0.2395741
perihelion distance (AU)2.2605583
Tisserand w.r.t. Jupiter3.2
ΔV w.r.t. Earth (km/sec)9.9
semimajor axis (AU)2.9727529
mean anomaly (°)57.59439
mean daily motion (°/day)0.19229400
aphelion distance (AU)3.685
period (years)5.13
P-vector [x]0.64390914
P-vector [y]0.74926626
P-vector [z]0.15485830
Q-vector [x]-0.76212944
Q-vector [y]0.61030767
Q-vector [z]0.21606310
absolute magnitude15.95
phase slope0.15
uncertainty0
referenceMPEC 2024-C181
observations used471
oppositions13
arc length (days)7779
first opposition used2002
last opposition used2024
residual rms (arc-secs)0.69
perturbers coarse indicatorM-v
perturbers precise indicator003Ek
first observation date used2002-10-28.0
last observation date used2024-02-14.0
computer nameMPCLINUX
JD of orbit computation2456789.278258
perihelion JD uncertainty (days)2.3104E-04
argument of perihelion uncertainty (°)6.7847E-05
ascending node uncertainty (°)3.3989E-05
inclination uncertainty (°)8.4481E-06
eccentricity uncertainty 9.4031E-08
perihelion distance uncertainty (AU)2.9569E-07
Minimum Orbit Intersection Distances (in AU)
for orbit epoch: 2460400.5, reference: E2024-GD4
Mercury1.9475
Venus1.5463
Earth1.29188
Mars0.83048
Jupiter1.82216
Saturn6.16914
Uranus15.0422
Neptune26.9827

Observations

477 total observations over interval: 2002 10 28.54702 – 2024 02 14.266198
These data are available for download (format description).

Date (UT) J2000 RA J2000 Dec Magn Location Ref
2002 10 28.54702 02 58 57.60 +01 42 23.4 19.4   608 – Haleakala-AMOS MPS 66302
2002 10 28.55759 02 58 57.13 +01 42 18.8 20.4   608 – Haleakala-AMOS MPS 66302
2002 10 28.56810 02 58 56.68 +01 42 14.4 19.5   608 – Haleakala-AMOS MPS 66302
2002 10 31.32814 02 56 58.75 +01 24 12.4 18.7   704 – Lincoln Laboratory ETS, New Mexico MPS 66302
2002 10 31.34536 02 56 57.95 +01 24 05.2 19.1   704 – Lincoln Laboratory ETS, New Mexico MPS 66302
2002 10 31.36271 02 56 57.13 +01 23 58.8 19.0   704 – Lincoln Laboratory ETS, New Mexico MPS 66302
2002 10 31.37978 02 56 56.36 +01 23 52.4 18.7   704 – Lincoln Laboratory ETS, New Mexico MPS 66302
2002 10 31.39687 02 56 55.57 +01 23 45.7 18.6   704 – Lincoln Laboratory ETS, New Mexico MPS 66302
2002 11 02.47988 02 55 23.78 +01 10 55.8 19.4   608 – Haleakala-AMOS MPS 66302
2002 11 02.49044 02 55 23.27 +01 10 51.9 19.7   608 – Haleakala-AMOS MPS 66302
2002 11 02.50228 02 55 22.73 +01 10 47.7 19.9   608 – Haleakala-AMOS MPS 66302
2002 11 06.19325 02 52 37.01 +00 49 49.7 18.6 R 699 – Lowell Observatory-LONEOS MPS 66302
2002 11 06.19409 02 52 37.00 +00 49 50.3 18.5 R 699 – Lowell Observatory-LONEOS MPS 66302
2002 11 06.21408 02 52 36.02 +00 49 42.7   699 – Lowell Observatory-LONEOS MPS 66302
2002 11 06.21492 02 52 36.04 +00 49 42.1   699 – Lowell Observatory-LONEOS MPS 66302
2002 11 06.23487 02 52 35.01 +00 49 36.4   699 – Lowell Observatory-LONEOS MPS 66302
2002 11 06.23570 02 52 35.12 +00 49 36.2   699 – Lowell Observatory-LONEOS MPS 66302
2002 11 06.25568 02 52 34.06 +00 49 30.1   699 – Lowell Observatory-LONEOS MPS 66302
2002 11 06.25651 02 52 34.06 +00 49 30.5   699 – Lowell Observatory-LONEOS MPS 66302
2002 11 22.30061 02 41 11.13 -00 07 26.2 18.9   644 – Palomar Mountain/NEAT MPS 68146
2002 11 22.32191 02 41 10.31 -00 07 28.3 19.6   644 – Palomar Mountain/NEAT MPS 68146
2002 11 22.34224 02 41 09.52 -00 07 30.1 19.2   644 – Palomar Mountain/NEAT MPS 68146
2002 11 30.22512 02 36 54.45 -00 12 16.6 18.7 C 704 – Lincoln Laboratory ETS, New Mexico MPS 290148
2002 11 30.23987 02 36 54.01 -00 12 15.4 18.9 C 704 – Lincoln Laboratory ETS, New Mexico MPS 290148
2002 11 30.25461 02 36 53.52 -00 12 15.5 18.9 C 704 – Lincoln Laboratory ETS, New Mexico MPS 290148
2002 11 30.26957 02 36 52.98 -00 12 14.7 18.8 C 704 – Lincoln Laboratory ETS, New Mexico MPS 290148
2002 12 08.31090 02 34 01.16 -00 01 00.0 19.2   644 – Palomar Mountain/NEAT MPS 68146
2002 12 08.33220 02 34 00.79 -00 00 56.9 19.3   644 – Palomar Mountain/NEAT MPS 68146
2002 12 08.35317 02 34 00.45 -00 00 54.3 19.4   644 – Palomar Mountain/NEAT MPS 68146
2007 09 11.35311 01 34 35.47 +01 03 39.4 19.4 V 703 – Catalina Sky Survey MPS 220347
2007 09 11.35964 01 34 35.32 +01 03 36.9 19.2 V 703 – Catalina Sky Survey MPS 220347
2007 09 11.36613 01 34 35.29 +01 03 33.7 18.8 V 703 – Catalina Sky Survey MPS 220347
2007 09 11.37265 01 34 35.22 +01 03 31.2 19.0 V 703 – Catalina Sky Survey MPS 220347
2007 09 18.30199 01 32 48.83 +00 07 45.0 19.1 C 704 – Lincoln Laboratory ETS, New Mexico MPS 290148
2007 09 18.31359 01 32 48.60 +00 07 38.4 18.8 C 704 – Lincoln Laboratory ETS, New Mexico MPS 290148
2007 09 18.32514 01 32 48.35 +00 07 31.7 19.2 C 704 – Lincoln Laboratory ETS, New Mexico MPS 290148
2007 09 18.33673 01 32 48.05 +00 07 24.9 18.8 C 704 – Lincoln Laboratory ETS, New Mexico MPS 290148
2007 10 08.32777 01 22 11.84 -02 50 22.7 18.5 r 699 – Lowell Observatory-LONEOS MPS 220831
2007 10 08.34969 01 22 10.89 -02 50 34.2   699 – Lowell Observatory-LONEOS MPS 220831
2007 10 08.37165 01 22 10.01 -02 50 45.1   699 – Lowell Observatory-LONEOS MPS 220831
2007 10 08.39359 01 22 09.04 -02 50 56.8   699 – Lowell Observatory-LONEOS MPS 220831
2007 10 10.27944 01 20 52.62 -03 07 13.9 18.8 V 703 – Catalina Sky Survey MPS 220831
2007 10 10.28537 01 20 52.40 -03 07 17.0 18.8 V 703 – Catalina Sky Survey MPS 220831
2007 10 10.29133 01 20 52.15 -03 07 20.1 19.0 V 703 – Catalina Sky Survey MPS 220831
2007 10 10.29728 01 20 51.86 -03 07 23.2 18.6 V 703 – Catalina Sky Survey MPS 220831
2007 10 17.25249 01 16 02.99 -04 03 46.8 18.6 r 699 – Lowell Observatory-LONEOS MPS 272350
2007 10 17.27811 01 16 01.94 -04 03 59.4 18.8 r 699 – Lowell Observatory-LONEOS MPS 272350
2007 10 17.30371 01 16 00.81 -04 04 10.4 19.0 r 699 – Lowell Observatory-LONEOS MPS 272350
2007 10 17.32931 01 15 59.80 -04 04 23.3 18.8 r 699 – Lowell Observatory-LONEOS MPS 272350
2007 10 18.26201 01 15 21.08 -04 11 21.9 18.8   704 – Lincoln Laboratory ETS, New Mexico MPS 220347
2007 10 18.27347 01 15 20.67 -04 11 26.2 19.2   704 – Lincoln Laboratory ETS, New Mexico MPS 220347
2007 10 18.28493 01 15 20.16 -04 11 31.7 18.9   704 – Lincoln Laboratory ETS, New Mexico MPS 220347
2007 10 18.29640 01 15 19.66 -04 11 36.3 18.9   704 – Lincoln Laboratory ETS, New Mexico MPS 220347
2007 10 18.30785 01 15 19.14 -04 11 41.9 18.4   704 – Lincoln Laboratory ETS, New Mexico MPS 220347
2007 10 19.24359 01 14 40.81 -04 18 32.5 18.8 V 703 – Catalina Sky Survey MPS 222446
2007 10 19.25017 01 14 40.48 -04 18 36.0 19.0 V 703 – Catalina Sky Survey MPS 222446
2007 10 19.25676 01 14 40.23 -04 18 38.7 18.7 V 703 – Catalina Sky Survey MPS 222446
2007 10 19.26333 01 14 39.91 -04 18 41.5 18.7 V 703 – Catalina Sky Survey MPS 222446
2007 10 19.26904 01 14 39.66 -04 18 44.0 18.5 V 703 – Catalina Sky Survey MPS 222446
2007 10 19.27721 01 14 39.30 -04 18 47.5 18.5 V 703 – Catalina Sky Survey MPS 222446
2007 10 19.28543 01 14 38.97 -04 18 50.5 18.8 V 703 – Catalina Sky Survey MPS 222446
2007 10 19.29365 01 14 38.61 -04 18 54.4 18.4 V 703 – Catalina Sky Survey MPS 222446
2007 11 02.20191 01 06 05.50 -05 38 29.6 19.3 V 703 – Catalina Sky Survey MPS 224722
2007 11 02.20841 01 06 05.25 -05 38 29.8 19.4 V 703 – Catalina Sky Survey MPS 224722
2007 11 02.21492 01 06 05.07 -05 38 33.0 19.4 V 703 – Catalina Sky Survey MPS 224722
2007 11 02.22144 01 06 04.93 -05 38 33.6 18.9 V 703 – Catalina Sky Survey MPS 224722
2007 11 11.19052 01 02 17.37 -06 04 13.1 18.9   704 – Lincoln Laboratory ETS, New Mexico MPS 226767
2007 11 11.20260 01 02 17.09 -06 04 14.2 20.3   704 – Lincoln Laboratory ETS, New Mexico MPS 226767
2007 11 11.21526 01 02 16.80 -06 04 15.6 20.4   704 – Lincoln Laboratory ETS, New Mexico MPS 226767
2007 11 11.22735 01 02 16.59 -06 04 17.3 19.5   704 – Lincoln Laboratory ETS, New Mexico MPS 226767
2007 11 11.23944 01 02 16.22 -06 04 18.9 19.8   704 – Lincoln Laboratory ETS, New Mexico MPS 226767
2008 12 07.47231 10 39 44.86 +05 13 13.3   691 – Steward Observatory, Kitt Peak-Spacewatch MPS 269215
2008 12 07.48492 10 39 45.34 +05 13 11.6   691 – Steward Observatory, Kitt Peak-Spacewatch MPS 269215
2008 12 07.49754 10 39 45.80 +05 13 11.3   691 – Steward Observatory, Kitt Peak-Spacewatch MPS 269215
2009 02 16.98722 10 27 58.31 +08 57 06.6 19.5 V J75 – OAM Observatory, La Sagra MPS 279587
2009 02 17.00061 10 27 57.67 +08 57 12.1 19.7 V J75 – OAM Observatory, La Sagra MPS 279587
2009 02 17.01392 10 27 57.01 +08 57 18.6 19.7 V J75 – OAM Observatory, La Sagra MPS 279587
2009 02 18.02066 10 27 09.90 +09 04 48.9 20.0 V J75 – OAM Observatory, La Sagra MPS 279587
2009 02 18.03403 10 27 09.25 +09 04 55.9 19.7 V J75 – OAM Observatory, La Sagra MPS 279587
2009 02 18.04731 10 27 08.54 +09 05 02.2 19.8 V J75 – OAM Observatory, La Sagra MPS 279587
2009 02 18.94211 10 26 26.59 +09 11 43.8 19.9 V J75 – OAM Observatory, La Sagra MPS 279587
2009 02 18.95541 10 26 25.96 +09 11 50.2 19.7 V J75 – OAM Observatory, La Sagra MPS 279587
2009 02 18.96872 10 26 25.26 +09 11 55.9 19.8 V J75 – OAM Observatory, La Sagra MPS 279587
2009 02 25.91200 10 20 57.80 +10 03 44.4 18.9 R 106 – Crni Vrh MPS 277546
2009 02 25.93128 10 20 56.90 +10 03 53.0 18.3 R 106 – Crni Vrh MPS 277546
2009 02 25.95059 10 20 55.92 +10 04 01.3 18.2 R 106 – Crni Vrh MPS 277546
2009 03 23.19641 10 04 39.86 +12 43 04.0 20.4 V G96 – Mt. Lemmon Survey MPS 281232
2009 03 23.20157 10 04 39.68 +12 43 04.1 20.5 V G96 – Mt. Lemmon Survey MPS 281232
2009 03 23.20675 10 04 39.57 +12 43 05.9 20.6 V G96 – Mt. Lemmon Survey MPS 281232
2009 03 23.21185 10 04 39.46 +12 43 07.5 20.9 V G96 – Mt. Lemmon Survey MPS 281232
2009 04 30.17546 10 03 07.74 +14 02 07.1 21.2 V G96 – Mt. Lemmon Survey MPS 285651
